{"data":{"norad_id":46696,"epoch":"2026-06-13T19:54:53.568288Z","epoch_age_seconds":8546998,"freshness":"OLD","line1":"1 46696U 20073AC  26164.82978667  .11717806  12466-4  37616-3 0  9995","line2":"2 46696  53.0167  55.8567 0009172 265.5745  94.4255 16.44119597313210","mean_motion":16.44119597,"eccentricity":0.0009172,"inclination_deg":53.0167,"raan_deg":55.8567,"arg_perigee_deg":265.5745,"mean_anomaly_deg":94.4255,"bstar":0.00037616,"rev_number":31321,"period_min":87.584869289773,"perigee_km":148.87462730751,"apogee_km":160.85876929167,"semimajor_km":6533.0036982996,"source":"CELESTRAK","updated_at":"2026-06-14T09:01:10.410784Z"}}